Year,Month,Day,Hour,Minute,Value (Times are PST for temperature in C)
2021,01,25,00,00,2.80
2021,01,25,00,01,2.80
2021,01,25,00,02,2.80
2021,01,25,00,03,2.80
2021,01,25,00,04,2.80
2021,01,25,00,05,2.80
2021,01,25,00,06,2.80
2021,01,25,00,07,2.80
2021,01,25,00,08,2.70
2021,01,25,00,09,2.70
2021,01,25,00,10,2.70
2021,01,25,00,11,2.70
2021,01,25,00,12,2.70
2021,01,25,00,13,2.70
2021,01,25,00,14,2.80
2021,01,25,00,15,2.80
2021,01,25,00,16,2.80
2021,01,25,00,17,2.80
2021,01,25,00,18,2.80
2021,01,25,00,19,2.80
2021,01,25,00,20,2.80
2021,01,25,00,21,2.80
2021,01,25,00,22,2.80
2021,01,25,00,23,2.80
2021,01,25,00,24,2.80
2021,01,25,00,25,2.80
2021,01,25,00,26,2.80
2021,01,25,00,27,2.80
2021,01,25,00,28,2.80
2021,01,25,00,29,2.90
2021,01,25,00,30,2.90
2021,01,25,00,31,2.90
2021,01,25,00,32,2.90
2021,01,25,00,33,3.00
2021,01,25,00,34,3.00
2021,01,25,00,35,3.00
2021,01,25,00,36,3.10
2021,01,25,00,37,3.10
2021,01,25,00,38,3.10
2021,01,25,00,39,3.20
2021,01,25,00,40,3.20
2021,01,25,00,41,3.30
2021,01,25,00,42,3.30
2021,01,25,00,43,3.30
2021,01,25,00,44,3.30
2021,01,25,00,45,3.40
2021,01,25,00,46,3.40
2021,01,25,00,47,3.40
2021,01,25,00,48,3.40
2021,01,25,00,49,3.50
2021,01,25,00,50,3.50
2021,01,25,00,51,3.60
2021,01,25,00,52,3.60
2021,01,25,00,53,3.60
2021,01,25,00,54,3.60
2021,01,25,00,55,3.60
2021,01,25,00,56,3.70
2021,01,25,00,57,3.70
2021,01,25,00,58,3.70
2021,01,25,00,59,3.70
2021,01,25,01,00,3.70
2021,01,25,01,01,3.70
2021,01,25,01,02,3.70
2021,01,25,01,03,3.70
2021,01,25,01,04,3.70
2021,01,25,01,05,3.70
2021,01,25,01,06,3.70
2021,01,25,01,07,3.70
2021,01,25,01,08,3.70
2021,01,25,01,09,3.70
2021,01,25,01,10,3.60
2021,01,25,01,11,3.60
2021,01,25,01,12,3.60
2021,01,25,01,13,3.50
2021,01,25,01,14,3.50
2021,01,25,01,15,3.40
2021,01,25,01,16,3.40
2021,01,25,01,17,3.40
2021,01,25,01,18,3.40
2021,01,25,01,19,3.40
2021,01,25,01,20,3.40
2021,01,25,01,21,3.40
2021,01,25,01,22,3.40
2021,01,25,01,23,3.30
2021,01,25,01,24,3.30
2021,01,25,01,25,3.30
2021,01,25,01,26,3.30
2021,01,25,01,27,3.30
2021,01,25,01,28,3.30
2021,01,25,01,29,3.30
2021,01,25,01,30,3.30
2021,01,25,01,31,3.30
2021,01,25,01,32,3.30
2021,01,25,01,33,3.30
2021,01,25,01,34,3.30
2021,01,25,01,35,3.30
2021,01,25,01,36,3.40
2021,01,25,01,37,3.40
2021,01,25,01,38,3.40
2021,01,25,01,39,3.40
2021,01,25,01,40,3.40
2021,01,25,01,41,3.40
2021,01,25,01,42,3.40
2021,01,25,01,43,3.40
2021,01,25,01,44,3.40
2021,01,25,01,45,3.40
2021,01,25,01,46,3.40
2021,01,25,01,47,3.40
2021,01,25,01,48,3.40
2021,01,25,01,49,3.40
2021,01,25,01,50,3.40
2021,01,25,01,51,3.40
2021,01,25,01,52,3.30
2021,01,25,01,53,3.30
2021,01,25,01,54,3.30
2021,01,25,01,55,3.30
2021,01,25,01,56,3.30
2021,01,25,01,57,3.30
2021,01,25,01,58,3.30
2021,01,25,01,59,3.30
2021,01,25,02,00,3.20
2021,01,25,02,01,3.20
2021,01,25,02,02,3.20
2021,01,25,02,03,3.20
2021,01,25,02,04,3.20
2021,01,25,02,05,3.20
2021,01,25,02,06,3.20
2021,01,25,02,07,3.20
2021,01,25,02,08,3.20
2021,01,25,02,09,3.20
2021,01,25,02,10,3.20
2021,01,25,02,11,3.20
2021,01,25,02,12,3.20
2021,01,25,02,13,3.20
2021,01,25,02,14,3.10
2021,01,25,02,15,3.10
2021,01,25,02,16,3.10
2021,01,25,02,17,3.10
2021,01,25,02,18,3.10
2021,01,25,02,19,3.10
2021,01,25,02,20,3.10
2021,01,25,02,21,3.00
2021,01,25,02,22,3.00
2021,01,25,02,23,3.00
2021,01,25,02,24,3.00
2021,01,25,02,25,3.00
2021,01,25,02,26,3.10
2021,01,25,02,27,3.10
2021,01,25,02,28,3.10
2021,01,25,02,29,3.00
2021,01,25,02,30,3.00
2021,01,25,02,31,3.00
2021,01,25,02,32,3.00
2021,01,25,02,33,3.00
2021,01,25,02,34,3.00
2021,01,25,02,35,3.00
2021,01,25,02,36,3.00
2021,01,25,02,37,3.00
2021,01,25,02,38,3.00
2021,01,25,02,39,2.90
2021,01,25,02,40,2.90
2021,01,25,02,41,2.90
2021,01,25,02,42,2.90
2021,01,25,02,43,2.90
2021,01,25,02,44,2.90
2021,01,25,02,45,2.90
2021,01,25,02,46,2.90
2021,01,25,02,47,2.90
2021,01,25,02,48,2.90
2021,01,25,02,49,3.00
2021,01,25,02,50,3.00
2021,01,25,02,51,3.10
2021,01,25,02,52,3.10
2021,01,25,02,53,3.10
2021,01,25,02,54,3.20
2021,01,25,02,55,3.20
2021,01,25,02,56,3.30
2021,01,25,02,57,3.30
2021,01,25,02,58,3.40
2021,01,25,02,59,3.40
2021,01,25,03,00,3.40
2021,01,25,03,01,3.50
2021,01,25,03,02,3.50
2021,01,25,03,03,3.50
2021,01,25,03,04,3.60
2021,01,25,03,05,3.60
2021,01,25,03,06,3.60
2021,01,25,03,07,3.60
2021,01,25,03,08,3.60
2021,01,25,03,09,3.60
2021,01,25,03,10,3.60
2021,01,25,03,11,3.60
2021,01,25,03,12,3.60
2021,01,25,03,13,3.60
2021,01,25,03,14,3.60
2021,01,25,03,15,3.60
2021,01,25,03,16,3.70
2021,01,25,03,17,3.70
2021,01,25,03,18,3.70
2021,01,25,03,19,3.70
2021,01,25,03,20,3.60
2021,01,25,03,21,3.60
2021,01,25,03,22,3.60
2021,01,25,03,23,3.60
2021,01,25,03,24,3.60
2021,01,25,03,25,3.60
2021,01,25,03,26,3.60
2021,01,25,03,27,3.60
2021,01,25,03,28,3.60
2021,01,25,03,29,3.60
2021,01,25,03,30,3.60
2021,01,25,03,31,3.60
2021,01,25,03,32,3.60
2021,01,25,03,33,3.60
2021,01,25,03,34,3.60
2021,01,25,03,35,3.60
2021,01,25,03,36,3.60
2021,01,25,03,37,3.60
2021,01,25,08,26,3.20
2021,01,25,08,27,3.20
2021,01,25,08,28,3.20
2021,01,25,08,29,3.20
2021,01,25,08,30,3.20
2021,01,25,08,31,3.30
2021,01,25,08,32,3.30
2021,01,25,08,33,3.30
2021,01,25,08,34,3.30
2021,01,25,08,35,3.30
2021,01,25,08,36,3.30
2021,01,25,08,37,3.30
2021,01,25,08,38,3.30
2021,01,25,08,39,3.30
2021,01,25,08,40,3.30
2021,01,25,08,41,3.30
2021,01,25,08,42,3.30
2021,01,25,08,43,3.30
2021,01,25,08,44,3.30
2021,01,25,08,45,3.30
2021,01,25,08,46,3.30
2021,01,25,08,47,3.20
2021,01,25,08,48,3.20
2021,01,25,08,49,3.20
2021,01,25,08,50,3.20
2021,01,25,08,51,3.20
2021,01,25,08,52,3.20
2021,01,25,08,53,3.20
2021,01,25,08,54,3.20
2021,01,25,08,55,3.20
2021,01,25,08,56,3.20
2021,01,25,08,57,3.20
2021,01,25,08,58,3.10
2021,01,25,08,59,3.10
2021,01,25,09,00,3.10
2021,01,25,09,01,3.10
2021,01,25,09,02,3.20
2021,01,25,09,03,3.20
2021,01,25,09,04,3.20
2021,01,25,09,05,3.20
2021,01,25,09,06,3.20
2021,01,25,09,07,3.20
2021,01,25,09,08,3.20
2021,01,25,09,09,3.30
2021,01,25,09,10,3.30
2021,01,25,09,11,3.30
2021,01,25,09,12,3.30
2021,01,25,09,13,3.30
2021,01,25,09,14,3.30
2021,01,25,09,15,3.30
2021,01,25,09,16,3.30
2021,01,25,09,17,3.30
2021,01,25,09,18,3.30
2021,01,25,09,19,3.30
2021,01,25,09,20,3.40
2021,01,25,09,21,3.40
2021,01,25,09,22,3.40
2021,01,25,09,23,3.50
2021,01,25,09,24,3.50
2021,01,25,09,25,3.60
2021,01,25,09,26,3.60
2021,01,25,09,27,3.60
2021,01,25,09,28,3.70
2021,01,25,09,29,3.70
2021,01,25,09,30,3.70
2021,01,25,09,31,3.80
2021,01,25,09,32,3.80
2021,01,25,09,33,3.80
2021,01,25,09,34,3.90
2021,01,25,09,35,4.10
2021,01,25,09,36,4.30
2021,01,25,09,37,4.50
2021,01,25,09,38,4.60
2021,01,25,09,39,4.70
2021,01,25,09,40,4.80
2021,01,25,09,41,4.90
2021,01,25,09,42,4.90
2021,01,25,09,43,5.00
2021,01,25,09,44,5.00
2021,01,25,09,45,5.10
2021,01,25,09,46,5.20
2021,01,25,09,47,5.20
2021,01,25,09,48,5.30
2021,01,25,09,49,5.30
2021,01,25,09,50,5.40
2021,01,25,09,51,5.50
2021,01,25,09,52,5.50
2021,01,25,09,53,5.60
2021,01,25,09,54,5.70
2021,01,25,09,55,5.80
2021,01,25,09,56,5.80
2021,01,25,09,57,5.80
2021,01,25,09,58,5.80
2021,01,25,09,59,5.90
2021,01,25,10,00,5.90
2021,01,25,10,01,5.90
2021,01,25,10,02,5.90
2021,01,25,10,03,5.90
2021,01,25,10,04,5.90
2021,01,25,10,05,5.90
2021,01,25,10,06,5.90
2021,01,25,10,07,5.90
2021,01,25,10,08,5.80
2021,01,25,10,09,5.80
2021,01,25,10,10,5.80
2021,01,25,10,11,5.80
2021,01,25,10,12,5.70
2021,01,25,10,13,5.70
2021,01,25,10,14,5.70
2021,01,25,10,15,5.70
2021,01,25,10,16,5.70
2021,01,25,10,17,5.70
2021,01,25,10,18,5.60
2021,01,25,10,19,5.60
2021,01,25,10,20,5.60
2021,01,25,10,21,5.60
2021,01,25,10,22,5.60
2021,01,25,10,23,5.70
2021,01,25,10,24,5.70
2021,01,25,10,25,5.70
2021,01,25,10,26,5.70
2021,01,25,10,27,5.70
2021,01,25,10,28,5.80
2021,01,25,10,29,5.80
2021,01,25,10,30,5.80
2021,01,25,10,31,5.80
2021,01,25,10,32,5.80
2021,01,25,10,33,5.80
2021,01,25,10,34,5.80
2021,01,25,10,35,5.80
2021,01,25,10,36,5.80
2021,01,25,10,37,5.80
2021,01,25,10,38,5.80
2021,01,25,10,39,5.80
2021,01,25,10,40,5.80
2021,01,25,10,41,5.80
2021,01,25,10,42,5.80
2021,01,25,10,43,5.80
2021,01,25,10,44,5.80
2021,01,25,10,45,5.80
2021,01,25,10,46,5.80
2021,01,25,10,47,5.80
2021,01,25,10,48,5.80
2021,01,25,10,49,5.80
2021,01,25,10,50,5.70
2021,01,25,10,51,5.70
2021,01,25,10,52,5.70
2021,01,25,10,53,5.70
2021,01,25,10,54,5.70
2021,01,25,10,55,5.70
2021,01,25,10,56,5.70
2021,01,25,10,57,5.80
2021,01,25,10,58,5.80
2021,01,25,10,59,5.90
2021,01,25,11,00,5.90
2021,01,25,11,01,5.90
2021,01,25,11,02,5.90
2021,01,25,11,03,5.90
2021,01,25,11,04,5.90
2021,01,25,11,05,5.90
2021,01,25,11,06,5.80
2021,01,25,11,07,5.80
2021,01,25,11,08,5.80
2021,01,25,11,09,5.80
2021,01,25,11,10,5.80
2021,01,25,11,11,5.90
2021,01,25,11,12,5.90
2021,01,25,11,13,6.00
2021,01,25,11,14,6.00
2021,01,25,11,15,6.10
2021,01,25,11,16,6.00
2021,01,25,11,17,6.10
2021,01,25,11,18,6.10
2021,01,25,11,19,6.10
2021,01,25,11,20,6.10
2021,01,25,11,21,6.10
2021,01,25,11,22,6.10
2021,01,25,11,23,6.00
2021,01,25,11,24,6.00
2021,01,25,11,25,6.00
2021,01,25,11,26,6.00
2021,01,25,11,27,6.00
2021,01,25,11,28,5.90
2021,01,25,11,29,5.90
2021,01,25,11,30,5.80
2021,01,25,11,31,5.80
2021,01,25,11,32,5.80
2021,01,25,11,33,5.80
2021,01,25,11,34,5.80
2021,01,25,11,35,5.70
2021,01,25,11,36,5.70
2021,01,25,11,37,5.80
2021,01,25,11,38,5.80
2021,01,25,11,39,5.80
2021,01,25,11,40,5.90
2021,01,25,11,41,6.00
2021,01,25,11,42,6.00
2021,01,25,11,43,6.10
2021,01,25,11,44,6.20
2021,01,25,11,45,6.20
2021,01,25,11,46,6.20
2021,01,25,11,47,6.20
2021,01,25,11,48,6.20
2021,01,25,11,49,6.30
2021,01,25,11,50,6.30
2021,01,25,11,51,6.30
2021,01,25,11,52,6.30
2021,01,25,11,53,6.40
2021,01,25,11,54,6.40
2021,01,25,11,55,6.40
2021,01,25,11,56,6.40
2021,01,25,11,57,6.40
2021,01,25,11,58,6.40
2021,01,25,11,59,6.40
2021,01,25,12,00,6.40
2021,01,25,12,01,6.40
2021,01,25,12,02,6.50
2021,01,25,12,03,6.50
2021,01,25,12,04,6.60
2021,01,25,12,05,6.70
2021,01,25,12,06,6.70
2021,01,25,12,07,6.80
2021,01,25,12,08,6.80
2021,01,25,12,09,6.80
2021,01,25,12,10,6.80
2021,01,25,12,11,6.80
2021,01,25,12,12,6.80
2021,01,25,12,13,6.80
2021,01,25,12,14,6.70
2021,01,25,12,15,6.60
2021,01,25,12,16,6.50
2021,01,25,12,17,6.40
2021,01,25,12,18,6.40
2021,01,25,12,19,6.30
2021,01,25,12,20,6.30
2021,01,25,12,21,6.30
2021,01,25,12,22,6.20
2021,01,25,12,23,6.10
2021,01,25,12,24,6.10
2021,01,25,12,25,6.10
2021,01,25,12,26,6.00
2021,01,25,12,27,6.00
2021,01,25,12,28,6.00
2021,01,25,12,29,6.00
2021,01,25,12,30,6.00
2021,01,25,12,31,6.00
2021,01,25,12,32,5.90
2021,01,25,12,33,5.90
2021,01,25,12,34,6.00
2021,01,25,12,35,6.00
2021,01,25,12,36,6.10
2021,01,25,12,37,6.20
2021,01,25,12,38,6.20
2021,01,25,12,39,6.30
2021,01,25,12,40,6.30
2021,01,25,12,41,6.30
2021,01,25,12,42,6.30
2021,01,25,12,43,6.40
2021,01,25,12,44,6.40
2021,01,25,12,45,6.50
2021,01,25,12,46,6.50
2021,01,25,12,47,6.50
2021,01,25,12,48,6.50
2021,01,25,12,49,6.40
2021,01,25,12,50,6.50
2021,01,25,12,51,6.50
2021,01,25,12,52,6.40
2021,01,25,12,53,6.40
2021,01,25,12,54,6.50
2021,01,25,12,55,6.50
2021,01,25,12,56,6.60
2021,01,25,12,57,6.60
2021,01,25,12,58,6.60
2021,01,25,12,59,6.60
2021,01,25,13,00,6.60
2021,01,25,13,01,6.60
2021,01,25,13,02,6.60
2021,01,25,13,03,6.60
2021,01,25,13,04,6.60
2021,01,25,13,05,6.50
2021,01,25,13,06,6.50
2021,01,25,13,07,6.40
2021,01,25,13,08,6.40
2021,01,25,13,09,6.30
2021,01,25,13,10,6.20
2021,01,25,13,11,6.20
2021,01,25,13,12,6.20
2021,01,25,13,13,6.10
2021,01,25,13,14,6.10
2021,01,25,13,15,6.10
2021,01,25,13,16,6.10
2021,01,25,13,17,6.00
2021,01,25,13,18,6.00
2021,01,25,13,19,5.90
2021,01,25,13,20,5.90
2021,01,25,13,21,5.90
2021,01,25,13,22,5.90
2021,01,25,13,23,5.80
2021,01,25,13,24,5.80
2021,01,25,13,25,5.80
2021,01,25,13,26,5.80
2021,01,25,13,27,5.90
2021,01,25,13,28,5.90
2021,01,25,13,29,5.90
2021,01,25,13,30,5.90
2021,01,25,13,31,5.90
2021,01,25,13,32,5.90
2021,01,25,13,33,5.80
2021,01,25,13,34,5.80
2021,01,25,13,35,5.80
2021,01,25,13,36,5.80
2021,01,25,13,37,5.80
2021,01,25,13,38,5.80
2021,01,25,13,39,5.80
2021,01,25,13,40,5.80
2021,01,25,13,41,5.80
2021,01,25,13,42,5.80
2021,01,25,13,43,5.90
2021,01,25,13,44,6.00
2021,01,25,13,45,6.00
2021,01,25,13,46,6.00
2021,01,25,13,47,6.10
2021,01,25,13,48,6.10
2021,01,25,13,49,6.10
2021,01,25,13,50,6.00
2021,01,25,13,51,6.00
2021,01,25,13,52,6.00
2021,01,25,13,53,5.90
2021,01,25,13,54,5.90
2021,01,25,13,55,5.80
2021,01,25,13,56,5.80
2021,01,25,13,57,5.80
2021,01,25,13,58,5.70
2021,01,25,13,59,5.70
2021,01,25,14,00,5.70
2021,01,25,14,01,5.70
2021,01,25,14,02,5.70
2021,01,25,14,03,5.70
2021,01,25,14,04,5.70
2021,01,25,14,05,5.70
2021,01,25,14,06,5.70
2021,01,25,14,07,5.70
2021,01,25,14,08,5.70
2021,01,25,14,09,5.70
2021,01,25,14,10,5.70
2021,01,25,14,11,5.60
2021,01,25,14,12,5.60
2021,01,25,14,13,5.60
2021,01,25,14,14,5.60
2021,01,25,14,15,5.60
2021,01,25,14,16,5.60
2021,01,25,14,17,5.60
2021,01,25,14,18,5.60
2021,01,25,14,19,5.60
2021,01,25,14,20,5.60
2021,01,25,14,21,5.60
2021,01,25,14,22,5.60
2021,01,25,14,23,5.60
2021,01,25,14,24,5.50
2021,01,25,14,25,5.50
2021,01,25,14,26,5.50
2021,01,25,14,27,5.50
2021,01,25,14,28,5.50
2021,01,25,14,29,5.50
2021,01,25,14,30,5.50
2021,01,25,14,31,5.50
2021,01,25,14,32,5.50
2021,01,25,14,33,5.50
2021,01,25,14,34,5.50
2021,01,25,14,35,5.50
2021,01,25,14,36,5.50
2021,01,25,14,37,5.50
2021,01,25,14,38,5.50
2021,01,25,14,39,5.50
2021,01,25,14,40,5.50
2021,01,25,14,41,5.50
2021,01,25,14,42,5.50
2021,01,25,14,43,5.50
2021,01,25,14,44,5.50
2021,01,25,14,45,5.40
2021,01,25,14,46,5.40
2021,01,25,14,47,5.40
2021,01,25,14,48,5.40
2021,01,25,14,49,5.40
2021,01,25,14,50,5.40
2021,01,25,14,51,5.40
2021,01,25,14,52,5.40
2021,01,25,14,53,5.40
2021,01,25,14,54,5.40
2021,01,25,14,55,5.40
2021,01,25,14,56,5.50
2021,01,25,14,57,5.50
2021,01,25,14,58,5.60
2021,01,25,14,59,5.60
2021,01,25,15,00,5.60
2021,01,25,15,01,5.70
2021,01,25,15,02,5.70
2021,01,25,15,03,5.70
2021,01,25,15,04,5.70
2021,01,25,15,05,5.80
2021,01,25,15,06,5.80
2021,01,25,15,07,5.80
2021,01,25,15,08,5.80
2021,01,25,15,09,5.80
2021,01,25,15,10,5.80
2021,01,25,15,11,5.90
2021,01,25,15,12,5.90
2021,01,25,15,13,5.90
2021,01,25,15,14,5.90
2021,01,25,15,15,5.90
2021,01,25,15,16,5.90
2021,01,25,15,17,5.90
2021,01,25,15,18,5.90
2021,01,25,15,19,5.90
2021,01,25,15,20,5.80
2021,01,25,15,21,5.80
2021,01,25,15,22,5.80
2021,01,25,15,23,5.80
2021,01,25,15,24,5.80
2021,01,25,15,25,5.80
2021,01,25,15,26,5.80
2021,01,25,15,27,5.80
2021,01,25,15,28,5.80
2021,01,25,15,29,5.70
2021,01,25,15,30,5.70
2021,01,25,15,31,5.70
2021,01,25,15,32,5.70
2021,01,25,15,33,5.70
2021,01,25,15,34,5.70
2021,01,25,15,35,5.70
2021,01,25,15,36,5.70
2021,01,25,15,37,5.70
2021,01,25,15,38,5.70
2021,01,25,15,39,5.70
2021,01,25,15,40,5.70
2021,01,25,15,41,5.70
2021,01,25,15,42,5.70
2021,01,25,15,43,5.70
2021,01,25,15,44,5.70
2021,01,25,15,45,5.70
2021,01,25,15,46,5.70
2021,01,25,15,47,5.70
2021,01,25,15,48,5.70
2021,01,25,15,49,5.70
2021,01,25,15,50,5.70
2021,01,25,15,51,5.70
2021,01,25,15,52,5.70
2021,01,25,15,53,5.70
2021,01,25,15,54,5.70
2021,01,25,15,55,5.70
2021,01,25,15,56,5.70
2021,01,25,15,57,5.70
2021,01,25,15,58,5.70
2021,01,25,15,59,5.70
2021,01,25,16,00,5.70
2021,01,25,16,01,5.70
2021,01,25,16,02,5.70
2021,01,25,16,03,5.70
2021,01,25,16,04,5.70
2021,01,25,16,05,5.70
2021,01,25,16,06,5.80
2021,01,25,16,07,5.80
2021,01,25,16,08,5.80
2021,01,25,16,09,5.80
2021,01,25,16,10,5.90
2021,01,25,16,11,5.90
2021,01,25,16,12,5.90
2021,01,25,16,13,6.00
2021,01,25,16,14,6.00
2021,01,25,16,15,6.00
2021,01,25,16,16,6.00
2021,01,25,16,17,6.00
2021,01,25,16,18,6.10
2021,01,25,16,19,6.10
2021,01,25,16,20,6.10
2021,01,25,16,21,6.10
2021,01,25,16,22,6.10
2021,01,25,16,23,6.10
2021,01,25,16,24,6.20
2021,01,25,16,25,6.20
2021,01,25,16,26,6.20
2021,01,25,16,27,6.20
2021,01,25,16,28,6.20
2021,01,25,16,29,6.20
2021,01,25,16,30,6.20
2021,01,25,16,31,6.20
2021,01,25,16,32,6.20
2021,01,25,16,33,6.20
2021,01,25,16,34,6.20
2021,01,25,16,35,6.20
2021,01,25,16,36,6.10
2021,01,25,16,37,6.10
2021,01,25,16,38,6.10
2021,01,25,16,39,6.10
2021,01,25,16,40,6.10
2021,01,25,16,41,6.00
2021,01,25,16,42,6.00
2021,01,25,16,43,6.00
2021,01,25,16,44,6.00
2021,01,25,16,45,5.90
2021,01,25,16,46,5.90
2021,01,25,16,47,5.90
2021,01,25,16,48,5.90
2021,01,25,16,49,5.80
2021,01,25,16,50,5.80
2021,01,25,16,51,5.80
2021,01,25,16,52,5.80
2021,01,25,16,53,5.70
2021,01,25,16,54,5.70
2021,01,25,16,55,5.70
2021,01,25,16,56,5.70
2021,01,25,16,57,5.70
2021,01,25,16,58,5.70
2021,01,25,16,59,5.60
2021,01,25,17,00,5.60
2021,01,25,17,01,5.60
2021,01,25,17,02,5.60
2021,01,25,17,03,5.60
2021,01,25,17,04,5.60
2021,01,25,17,05,5.60
2021,01,25,17,06,5.50
2021,01,25,17,07,5.50
2021,01,25,17,08,5.50
2021,01,25,17,09,5.50
2021,01,25,17,10,5.50
2021,01,25,17,11,5.40
2021,01,25,17,12,5.40
2021,01,25,17,13,5.40
2021,01,25,17,14,5.40
2021,01,25,17,15,5.40
2021,01,25,17,16,5.30
2021,01,25,17,17,5.30
2021,01,25,17,18,5.30
2021,01,25,17,19,5.30
2021,01,25,17,20,5.30
2021,01,25,17,21,5.20
2021,01,25,17,22,5.20
2021,01,25,17,23,5.20
2021,01,25,17,24,5.10
2021,01,25,17,25,5.10
2021,01,25,17,26,5.10
2021,01,25,17,27,5.00
2021,01,25,17,28,4.90
2021,01,25,17,29,4.90
2021,01,25,17,30,4.80
2021,01,25,17,31,4.80
2021,01,25,17,32,4.80
2021,01,25,17,33,4.70
2021,01,25,17,34,4.70
2021,01,25,17,35,4.70
2021,01,25,17,36,4.60
2021,01,25,17,37,4.60
2021,01,25,17,38,4.60
2021,01,25,17,39,4.60
2021,01,25,17,40,4.50
2021,01,25,17,41,4.50
2021,01,25,17,42,4.50
2021,01,25,17,43,4.40
2021,01,25,17,44,4.40
2021,01,25,17,45,4.40
2021,01,25,17,46,4.30
2021,01,25,17,47,4.30
2021,01,25,17,48,4.30
2021,01,25,17,49,4.30
2021,01,25,17,50,4.20
2021,01,25,17,51,4.20
2021,01,25,17,52,4.20
2021,01,25,17,53,4.10
2021,01,25,17,54,4.10
2021,01,25,17,55,4.00
2021,01,25,17,56,3.90
2021,01,25,17,57,3.90
2021,01,25,17,58,3.80
2021,01,25,17,59,3.80
2021,01,25,18,00,3.70
2021,01,25,18,01,3.60
2021,01,25,18,02,3.60
2021,01,25,18,03,3.50
2021,01,25,18,04,3.50
2021,01,25,18,05,3.40
2021,01,25,18,06,3.40
2021,01,25,18,07,3.30
2021,01,25,18,08,3.30
2021,01,25,18,09,3.30
2021,01,25,18,10,3.30
2021,01,25,18,11,3.30
2021,01,25,18,12,3.30
2021,01,25,18,13,3.30
2021,01,25,18,14,3.30
2021,01,25,18,15,3.20
2021,01,25,18,16,3.20
2021,01,25,18,17,3.20
2021,01,25,18,18,3.20
2021,01,25,18,19,3.20
2021,01,25,18,20,3.20
2021,01,25,18,21,3.10
2021,01,25,18,22,3.10
2021,01,25,18,23,3.10
2021,01,25,18,24,3.00
2021,01,25,18,25,3.00
2021,01,25,18,26,2.90
2021,01,25,18,27,2.90
2021,01,25,18,28,2.90
2021,01,25,18,29,2.80
2021,01,25,18,30,2.80
2021,01,25,18,31,2.80
2021,01,25,18,32,2.70
2021,01,25,18,33,2.70
2021,01,25,18,34,2.70
2021,01,25,18,35,2.70
2021,01,25,18,36,2.70
2021,01,25,18,37,2.60
2021,01,25,18,38,2.60
2021,01,25,18,39,2.60
2021,01,25,18,40,2.60
2021,01,25,18,41,2.60
2021,01,25,18,42,2.50
2021,01,25,18,43,2.50
2021,01,25,18,44,2.40
2021,01,25,18,45,2.40
2021,01,25,18,46,2.40
2021,01,25,18,47,2.40
2021,01,25,18,48,2.30
2021,01,25,18,49,2.30
2021,01,25,18,50,2.30
2021,01,25,18,51,2.30
2021,01,25,18,52,2.20
2021,01,25,18,53,2.20
2021,01,25,18,54,2.20
2021,01,25,18,55,2.10
2021,01,25,18,56,2.10
2021,01,25,18,57,2.10
2021,01,25,18,58,2.10
2021,01,25,18,59,2.10
2021,01,25,19,00,2.00
2021,01,25,19,01,2.00
2021,01,25,19,02,2.00
2021,01,25,19,03,1.90
2021,01,25,19,04,1.90
2021,01,25,19,05,1.90
2021,01,25,19,06,1.90
2021,01,25,19,07,1.90
2021,01,25,19,08,1.90
2021,01,25,19,09,1.90
2021,01,25,19,10,1.90
2021,01,25,19,11,1.80
2021,01,25,19,12,1.80
2021,01,25,19,13,1.80
2021,01,25,19,14,1.80
2021,01,25,19,15,1.80
2021,01,25,19,16,1.80
2021,01,25,19,17,1.80
2021,01,25,19,18,1.80
2021,01,25,19,19,1.80
2021,01,25,19,20,1.80
2021,01,25,19,21,1.80
2021,01,25,19,22,1.80
2021,01,25,19,23,1.70
2021,01,25,19,24,1.70
2021,01,25,19,25,1.70
2021,01,25,19,26,1.70
2021,01,25,19,27,1.70
2021,01,25,19,28,1.60
2021,01,25,19,29,1.60
2021,01,25,19,30,1.60
2021,01,25,19,31,1.60
2021,01,25,19,32,1.60
2021,01,25,19,33,1.60
2021,01,25,19,34,1.60
2021,01,25,19,35,1.60
2021,01,25,19,36,1.60
2021,01,25,19,37,1.60
2021,01,25,19,38,1.60
2021,01,25,19,39,1.60
2021,01,25,19,40,1.50
2021,01,25,19,41,1.50
2021,01,25,19,42,1.50
2021,01,25,19,43,1.40
2021,01,25,19,44,1.40
2021,01,25,19,45,1.30
2021,01,25,19,46,1.30
2021,01,25,19,47,1.30
2021,01,25,19,48,1.30
2021,01,25,19,49,1.20
2021,01,25,19,50,1.20
2021,01,25,19,51,1.20
2021,01,25,19,52,1.20
2021,01,25,19,53,1.20
2021,01,25,19,54,1.20
2021,01,25,19,55,1.30
2021,01,25,19,56,1.30
2021,01,25,19,57,1.30
2021,01,25,19,58,1.30
2021,01,25,19,59,1.30
2021,01,25,20,00,1.30
2021,01,25,20,01,1.30
2021,01,25,20,02,1.30
2021,01,25,20,03,1.30
2021,01,25,20,04,1.20
2021,01,25,20,05,1.20
2021,01,25,20,06,1.20
2021,01,25,20,07,1.10
2021,01,25,20,08,1.10
2021,01,25,20,09,1.10
2021,01,25,20,10,1.10
2021,01,25,20,11,1.00
2021,01,25,20,12,1.00
2021,01,25,20,13,0.90
2021,01,25,20,14,0.90
2021,01,25,20,15,0.90
2021,01,25,20,16,0.90
2021,01,25,20,17,0.90
2021,01,25,20,18,0.90
2021,01,25,20,19,0.90
2021,01,25,20,20,0.90
2021,01,25,20,21,1.00
2021,01,25,20,22,1.00
2021,01,25,20,23,1.00
2021,01,25,20,24,1.00
2021,01,25,20,25,0.90
2021,01,25,20,26,0.90
2021,01,25,20,27,0.90
2021,01,25,20,28,0.90
2021,01,25,20,29,0.80
2021,01,25,20,30,0.80
2021,01,25,20,31,0.70
2021,01,25,20,32,0.70
2021,01,25,20,33,0.70
2021,01,25,20,34,0.60
2021,01,25,20,35,0.60
2021,01,25,20,36,0.50
2021,01,25,20,37,0.50
2021,01,25,20,38,0.40
2021,01,25,20,39,0.40
2021,01,25,20,40,0.40
2021,01,25,20,41,0.40
2021,01,25,20,42,0.30
2021,01,25,20,43,0.30
2021,01,25,20,44,0.30
2021,01,25,20,45,0.30
2021,01,25,20,46,0.30
2021,01,25,20,47,0.30
2021,01,25,20,48,0.30
2021,01,25,20,49,0.30
2021,01,25,20,50,0.30
2021,01,25,20,51,0.30
2021,01,25,20,52,0.20
2021,01,25,20,53,0.20
2021,01,25,20,54,0.20
2021,01,25,20,55,0.20
2021,01,25,20,56,0.20
2021,01,25,20,57,0.20
2021,01,25,20,58,0.20
2021,01,25,20,59,0.20
2021,01,25,21,00,0.20
2021,01,25,21,01,0.20
2021,01,25,21,02,0.30
2021,01,25,21,03,0.30
2021,01,25,21,04,0.30
2021,01,25,21,05,0.30
2021,01,25,21,06,0.40
2021,01,25,21,07,0.40
2021,01,25,21,08,0.40
2021,01,25,21,09,0.50
2021,01,25,21,10,0.50
2021,01,25,21,11,0.50
2021,01,25,21,12,0.60
2021,01,25,21,13,0.60
2021,01,25,21,14,0.60
2021,01,25,21,15,0.60
2021,01,25,21,16,0.60
2021,01,25,21,17,0.60
2021,01,25,21,18,0.60
2021,01,25,21,19,0.60
2021,01,25,21,20,0.70
2021,01,25,21,21,0.70
2021,01,25,21,22,0.70
2021,01,25,21,23,0.70
2021,01,25,21,24,0.60
2021,01,25,21,25,0.60
2021,01,25,21,26,0.60
2021,01,25,21,27,0.50
2021,01,25,21,28,0.40
2021,01,25,21,29,0.30
2021,01,25,21,30,0.30
2021,01,25,21,31,0.20
2021,01,25,21,32,0.20
2021,01,25,21,33,0.20
2021,01,25,21,34,0.10
2021,01,25,21,35,0.10
2021,01,25,21,36,0.10
2021,01,25,21,37,0.10
2021,01,25,21,38,0.10
2021,01,25,21,39,0.10
2021,01,25,21,40,0.10
2021,01,25,21,41,0.10
2021,01,25,21,42,0.10
2021,01,25,21,43,0.10
2021,01,25,21,44,0.10
2021,01,25,21,45,0.20
2021,01,25,21,46,0.20
2021,01,25,21,47,0.20
2021,01,25,21,48,0.10
2021,01,25,21,49,0.10
2021,01,25,21,50,0.10
2021,01,25,21,51,0.00
2021,01,25,21,52,0.00
2021,01,25,21,53,0.00
2021,01,25,21,54,-0.10
2021,01,25,21,55,-0.10
2021,01,25,21,56,-0.10
2021,01,25,21,57,-0.10
2021,01,25,21,58,-0.10
2021,01,25,21,59,-0.20
2021,01,25,22,00,-0.20
2021,01,25,22,01,-0.20
2021,01,25,22,02,-0.20
2021,01,25,22,03,-0.20
2021,01,25,22,04,-0.20
2021,01,25,22,05,-0.20
2021,01,25,22,06,-0.20
2021,01,25,22,07,-0.20
2021,01,25,22,08,-0.20
2021,01,25,22,09,-0.20
2021,01,25,22,10,-0.20
2021,01,25,22,11,-0.20
2021,01,25,22,12,-0.20
2021,01,25,22,13,-0.30
2021,01,25,22,14,-0.30
2021,01,25,22,15,-0.30
2021,01,25,22,16,-0.30
2021,01,25,22,17,-0.30
2021,01,25,22,18,-0.30
2021,01,25,22,19,-0.30
2021,01,25,22,20,-0.30
2021,01,25,22,21,-0.30
2021,01,25,22,22,-0.30
2021,01,25,22,23,-0.20
2021,01,25,22,24,-0.20
2021,01,25,22,25,-0.20
2021,01,25,22,26,-0.20
2021,01,25,22,27,-0.20
2021,01,25,22,28,-0.20
2021,01,25,22,29,-0.20
2021,01,25,22,30,-0.20
2021,01,25,22,31,-0.20
2021,01,25,22,32,-0.20
2021,01,25,22,33,-0.30
2021,01,25,22,34,-0.30
2021,01,25,22,35,-0.30
2021,01,25,22,36,-0.30
2021,01,25,22,37,-0.30
2021,01,25,22,38,-0.30
2021,01,25,22,39,-0.30
2021,01,25,22,40,-0.30
2021,01,25,22,41,-0.40
2021,01,25,22,42,-0.40
2021,01,25,22,43,-0.40
2021,01,25,22,44,-0.40
2021,01,25,22,45,-0.40
2021,01,25,22,46,-0.50
2021,01,25,22,47,-0.50
2021,01,25,22,48,-0.50
2021,01,25,22,49,-0.50
2021,01,25,22,50,-0.60
2021,01,25,22,51,-0.60
2021,01,25,22,52,-0.60